Year,Month,Day,Hour,Minute,Value (Times are PST for insolation in W/m^2)
2005,05,23,00,00,0.00
2005,05,23,00,01,0.00
2005,05,23,00,02,0.00
2005,05,23,00,03,0.00
2005,05,23,00,04,0.00
2005,05,23,00,05,0.00
2005,05,23,00,06,0.00
2005,05,23,00,07,0.00
2005,05,23,00,08,0.00
2005,05,23,00,09,0.00
2005,05,23,00,10,0.00
2005,05,23,00,11,0.00
2005,05,23,00,12,0.00
2005,05,23,00,13,0.00
2005,05,23,00,14,0.00
2005,05,23,00,15,0.00
2005,05,23,00,24,0.00
2005,05,23,00,25,0.00
2005,05,23,00,26,0.00
2005,05,23,00,28,0.00
2005,05,23,00,30,0.00
2005,05,23,00,31,0.00
2005,05,23,00,32,0.00
2005,05,23,00,33,0.00
2005,05,23,00,34,0.00
2005,05,23,00,35,0.00
2005,05,23,00,36,0.00
2005,05,23,00,37,0.00
2005,05,23,00,38,0.00
2005,05,23,00,39,0.00
2005,05,23,00,40,0.00
2005,05,23,00,41,0.00
2005,05,23,00,42,0.00
2005,05,23,00,43,0.00
2005,05,23,00,44,0.00
2005,05,23,00,45,0.00
2005,05,23,00,46,0.00
2005,05,23,00,47,0.00
2005,05,23,00,48,0.00
2005,05,23,00,49,0.00
2005,05,23,00,50,0.00
2005,05,23,00,51,0.00
2005,05,23,00,52,0.00
2005,05,23,00,53,0.00
2005,05,23,00,54,0.00
2005,05,23,00,55,0.00
2005,05,23,00,56,0.00
2005,05,23,00,57,0.00
2005,05,23,00,58,0.00
2005,05,23,00,59,0.00
2005,05,23,01,00,0.00
2005,05,23,01,01,0.00
2005,05,23,01,02,0.00
2005,05,23,01,03,0.00
2005,05,23,01,04,0.00
2005,05,23,01,05,0.00
2005,05,23,01,06,0.00
2005,05,23,01,07,0.00
2005,05,23,01,08,0.00
2005,05,23,01,09,0.00
2005,05,23,01,10,0.00
2005,05,23,01,11,0.00
2005,05,23,01,12,0.00
2005,05,23,01,13,0.00
2005,05,23,01,14,0.00
2005,05,23,01,15,0.00
2005,05,23,01,16,0.00
2005,05,23,01,17,0.00
2005,05,23,01,18,0.00
2005,05,23,01,19,0.00
2005,05,23,01,20,0.00
2005,05,23,01,21,0.00
2005,05,23,01,22,0.00
2005,05,23,01,23,0.00
2005,05,23,01,24,0.00
2005,05,23,01,25,0.00
2005,05,23,01,26,0.00
2005,05,23,01,27,0.00
2005,05,23,01,28,0.00
2005,05,23,01,29,0.00
2005,05,23,01,30,0.00
2005,05,23,01,31,0.00
2005,05,23,01,32,0.00
2005,05,23,01,33,0.00
2005,05,23,01,34,0.00
2005,05,23,01,35,0.00
2005,05,23,01,36,0.00
2005,05,23,01,37,0.00
2005,05,23,01,38,0.00
2005,05,23,01,39,0.00
2005,05,23,01,40,0.00
2005,05,23,01,41,0.00
2005,05,23,01,42,0.00
2005,05,23,01,43,0.00
2005,05,23,01,44,0.00
2005,05,23,01,45,0.00
2005,05,23,01,46,0.00
2005,05,23,01,47,0.00
2005,05,23,01,48,0.00
2005,05,23,01,49,0.00
2005,05,23,01,50,0.00
2005,05,23,01,51,0.00
2005,05,23,01,52,0.00
2005,05,23,01,53,0.00
2005,05,23,01,54,0.00
2005,05,23,01,55,0.00
2005,05,23,01,56,0.00
2005,05,23,01,57,0.00
2005,05,23,01,58,0.00
2005,05,23,01,59,0.00
2005,05,23,02,00,0.00
2005,05,23,02,01,0.00
2005,05,23,02,02,0.00
2005,05,23,02,03,0.00
2005,05,23,02,04,0.00
2005,05,23,02,05,0.00
2005,05,23,02,06,0.00
2005,05,23,02,07,0.00
2005,05,23,02,08,0.00
2005,05,23,02,09,0.00
2005,05,23,02,10,0.00
2005,05,23,02,11,0.00
2005,05,23,02,12,0.00
2005,05,23,02,13,0.00
2005,05,23,02,14,0.00
2005,05,23,02,15,0.00
2005,05,23,02,16,0.00
2005,05,23,02,17,0.00
2005,05,23,02,18,0.00
2005,05,23,02,19,0.00
2005,05,23,02,20,0.00
2005,05,23,02,21,0.00
2005,05,23,02,22,0.00
2005,05,23,02,23,0.00
2005,05,23,02,24,0.00
2005,05,23,02,25,0.00
2005,05,23,02,26,0.00
2005,05,23,02,27,0.00
2005,05,23,02,28,0.00
2005,05,23,02,29,0.00
2005,05,23,02,30,0.00
2005,05,23,02,31,0.00
2005,05,23,02,32,0.00
2005,05,23,02,33,0.00
2005,05,23,02,34,0.00
2005,05,23,02,35,0.00
2005,05,23,02,36,0.00
2005,05,23,02,37,0.00
2005,05,23,02,38,0.00
2005,05,23,02,39,0.00
2005,05,23,02,40,0.00
2005,05,23,02,41,0.00
2005,05,23,02,42,0.00
2005,05,23,02,43,0.00
2005,05,23,02,44,0.00
2005,05,23,02,45,0.00
2005,05,23,02,46,0.00
2005,05,23,02,47,0.00
2005,05,23,02,48,0.00
2005,05,23,02,49,0.00
2005,05,23,02,50,0.00
2005,05,23,02,51,0.00
2005,05,23,02,52,0.00
2005,05,23,02,53,0.00
2005,05,23,02,54,0.00
2005,05,23,02,55,0.00
2005,05,23,02,56,0.00
2005,05,23,02,57,0.00
2005,05,23,02,58,0.00
2005,05,23,02,59,0.00
2005,05,23,03,00,0.00
2005,05,23,03,01,0.00
2005,05,23,03,02,0.00
2005,05,23,03,03,0.00
2005,05,23,03,04,0.00
2005,05,23,03,05,0.00
2005,05,23,03,06,0.00
2005,05,23,03,07,0.00
2005,05,23,03,08,0.00
2005,05,23,03,09,0.00
2005,05,23,03,10,0.00
2005,05,23,03,11,0.00
2005,05,23,03,12,0.00
2005,05,23,03,13,0.00
2005,05,23,03,14,0.00
2005,05,23,03,15,0.00
2005,05,23,03,16,0.00
2005,05,23,03,17,0.00
2005,05,23,03,18,0.00
2005,05,23,03,19,0.00
2005,05,23,03,20,0.00
2005,05,23,03,21,0.00
2005,05,23,03,22,0.00
2005,05,23,03,23,0.00
2005,05,23,03,24,0.00
2005,05,23,03,25,0.00
2005,05,23,03,26,0.00
2005,05,23,03,27,0.00
2005,05,23,03,28,0.00
2005,05,23,03,29,0.00
2005,05,23,03,30,0.00
2005,05,23,03,31,0.00
2005,05,23,03,32,0.00
2005,05,23,03,33,0.00
2005,05,23,03,34,0.00
2005,05,23,03,35,0.00
2005,05,23,03,36,0.00
2005,05,23,03,37,0.00
2005,05,23,03,38,0.00
2005,05,23,03,39,0.00
2005,05,23,03,40,0.00
2005,05,23,03,41,0.00
2005,05,23,03,42,0.00
2005,05,23,03,43,0.00
2005,05,23,03,44,0.00
2005,05,23,03,45,0.00
2005,05,23,03,46,0.00
2005,05,23,03,47,0.00
2005,05,23,03,48,0.00
2005,05,23,03,49,0.00
2005,05,23,03,50,0.00
2005,05,23,03,51,0.00
2005,05,23,03,52,0.00
2005,05,23,03,53,0.00
2005,05,23,03,54,0.00
2005,05,23,03,55,0.00
2005,05,23,03,56,0.00
2005,05,23,03,57,0.00
2005,05,23,03,58,0.00
2005,05,23,03,59,0.00
2005,05,23,04,00,0.00
2005,05,23,04,01,0.00
2005,05,23,04,02,0.00
2005,05,23,04,03,0.00
2005,05,23,04,04,0.00
2005,05,23,04,05,0.00
2005,05,23,04,06,0.00
2005,05,23,04,07,0.00
2005,05,23,04,08,0.00
2005,05,23,04,09,0.00
2005,05,23,04,10,0.00
2005,05,23,04,11,0.00
2005,05,23,04,12,0.00
2005,05,23,04,13,0.00
2005,05,23,04,14,0.00
2005,05,23,04,15,0.00
2005,05,23,04,16,0.00
2005,05,23,04,17,0.00
2005,05,23,04,18,0.00
2005,05,23,04,19,0.00
2005,05,23,04,20,0.00
2005,05,23,04,21,0.00
2005,05,23,04,22,0.00
2005,05,23,04,23,0.00
2005,05,23,04,24,0.00
2005,05,23,04,25,0.00
2005,05,23,04,26,0.00
2005,05,23,04,27,0.00
2005,05,23,04,28,0.00
2005,05,23,04,29,0.00
2005,05,23,04,30,0.00
2005,05,23,04,31,0.00
2005,05,23,04,32,0.00
2005,05,23,04,33,0.00
2005,05,23,04,34,0.00
2005,05,23,04,35,0.00
2005,05,23,04,36,0.00
2005,05,23,04,37,0.00
2005,05,23,04,38,0.00
2005,05,23,04,39,0.00
2005,05,23,04,40,0.00
2005,05,23,04,41,0.00
2005,05,23,04,42,0.00
2005,05,23,04,43,0.00
2005,05,23,04,44,0.00
2005,05,23,04,45,0.00
2005,05,23,04,46,0.00
2005,05,23,04,47,0.00
2005,05,23,04,48,0.00
2005,05,23,04,49,0.00
2005,05,23,04,50,0.00
2005,05,23,04,51,0.00
2005,05,23,04,52,0.00
2005,05,23,04,53,0.00
2005,05,23,04,54,0.00
2005,05,23,04,55,0.00
2005,05,23,04,56,0.00
2005,05,23,04,57,0.00
2005,05,23,04,58,0.00
2005,05,23,04,59,0.00
2005,05,23,05,00,0.00
2005,05,23,05,01,0.00
2005,05,23,05,02,0.00
2005,05,23,05,03,0.00
2005,05,23,05,04,0.00
2005,05,23,05,05,0.00
2005,05,23,05,06,0.00
2005,05,23,05,07,0.00
2005,05,23,05,08,0.00
2005,05,23,05,09,0.00
2005,05,23,05,10,0.00
2005,05,23,05,11,0.00
2005,05,23,05,12,0.00
2005,05,23,05,13,0.00
2005,05,23,05,14,0.00
2005,05,23,05,15,0.00
2005,05,23,05,16,0.00
2005,05,23,05,17,0.00
2005,05,23,05,18,0.00
2005,05,23,05,19,0.00
2005,05,23,05,20,0.00
2005,05,23,05,21,0.00
2005,05,23,05,22,0.00
2005,05,23,05,23,0.00
2005,05,23,05,24,0.00
2005,05,23,05,25,0.00
2005,05,23,05,26,0.00
2005,05,23,05,27,0.00
2005,05,23,05,28,0.00
2005,05,23,05,29,0.00
2005,05,23,05,30,0.00
2005,05,23,05,31,0.00
2005,05,23,05,32,1.30
2005,05,23,05,33,5.00
2005,05,23,05,34,5.00
2005,05,23,05,35,5.00
2005,05,23,05,36,6.80
2005,05,23,05,37,7.00
2005,05,23,05,38,7.00
2005,05,23,05,39,7.00
2005,05,23,05,40,5.70
2005,05,23,05,41,5.00
2005,05,23,05,42,5.00
2005,05,23,05,43,5.00
2005,05,23,05,44,5.00
2005,05,23,05,45,5.00
2005,05,23,05,46,6.20
2005,05,23,05,47,7.00
2005,05,23,05,48,7.00
2005,05,23,05,49,7.40
2005,05,23,05,50,9.00
2005,05,23,05,51,10.00
2005,05,23,05,52,11.00
2005,05,23,05,53,11.80
2005,05,23,05,54,12.00
2005,05,23,05,55,12.50
2005,05,23,05,56,14.00
2005,05,23,05,57,15.10
2005,05,23,05,58,16.00
2005,05,23,05,59,16.00
2005,05,23,06,00,16.00
2005,05,23,06,01,16.70
2005,05,23,06,02,19.00
2005,05,23,06,03,20.10
2005,05,23,06,04,21.00
2005,05,23,06,05,22.60
2005,05,23,06,06,23.00
2005,05,23,06,07,23.50
2005,05,23,06,08,25.40
2005,05,23,06,09,26.00
2005,05,23,06,10,26.00
2005,05,23,06,11,26.00
2005,05,23,06,12,26.00
2005,05,23,06,13,26.00
2005,05,23,06,14,25.60
2005,05,23,06,15,25.00
2005,05,23,06,16,25.00
2005,05,23,06,17,25.90
2005,05,23,06,18,26.00
2005,05,23,06,19,26.60
2005,05,23,06,20,28.00
2005,05,23,06,21,28.00
2005,05,23,06,22,28.00
2005,05,23,06,23,31.70
2005,05,23,06,24,33.00
2005,05,23,06,25,33.00
2005,05,23,06,26,33.00
2005,05,23,06,27,37.50
2005,05,23,06,28,40.00
2005,05,23,06,29,43.70
2005,05,23,06,30,44.00
2005,05,23,06,31,44.70
2005,05,23,06,32,46.00
2005,05,23,06,33,46.00
2005,05,23,06,34,46.00
2005,05,23,06,35,46.10
2005,05,23,06,36,47.50
2005,05,23,06,37,50.40
2005,05,23,06,38,54.50
2005,05,23,06,39,57.40
2005,05,23,06,40,61.10
2005,05,23,06,41,63.30
2005,05,23,06,42,67.70
2005,05,23,06,43,71.60
2005,05,23,06,44,75.10
2005,05,23,06,45,76.70
2005,05,23,06,46,78.70
2005,05,23,06,47,81.20
2005,05,23,06,48,83.80
2005,05,23,06,49,87.60
2005,05,23,06,50,90.60
2005,05,23,06,51,93.90
2005,05,23,06,52,96.70
2005,05,23,06,53,98.50
2005,05,23,06,54,102.50
2005,05,23,06,55,104.00
2005,05,23,06,56,104.60
2005,05,23,06,57,105.00
2005,05,23,06,58,105.00
2005,05,23,06,59,104.80
2005,05,23,07,00,104.00
2005,05,23,07,01,104.00
2005,05,23,07,02,102.80
2005,05,23,07,03,100.50
2005,05,23,07,04,100.00
2005,05,23,07,05,100.00
2005,05,23,07,06,99.40
2005,05,23,07,07,97.50
2005,05,23,07,08,94.60
2005,05,23,07,09,91.50
2005,05,23,07,10,88.10
2005,05,23,07,11,88.00
2005,05,23,07,12,87.30
2005,05,23,07,13,86.90
2005,05,23,07,14,88.00
2005,05,23,07,15,89.60
2005,05,23,07,16,90.00
2005,05,23,07,17,91.10
2005,05,23,07,18,96.10
2005,05,23,07,19,100.00
2005,05,23,07,20,102.00
2005,05,23,07,21,102.00
2005,05,23,07,22,112.60
2005,05,23,07,23,114.00
2005,05,23,07,24,114.70
2005,05,23,07,25,116.00
2005,05,23,07,26,114.50
2005,05,23,07,27,113.20
2005,05,23,07,28,108.50
2005,05,23,07,29,102.90
2005,05,23,07,30,98.70
2005,05,23,07,31,97.00
2005,05,23,07,32,101.90
2005,05,23,07,33,110.00
2005,05,23,07,34,112.40
2005,05,23,07,35,118.00
2005,05,23,07,36,101.90
2005,05,23,07,37,89.30
2005,05,23,07,38,122.70
2005,05,23,07,39,159.50
2005,05,23,07,40,135.80
2005,05,23,07,41,143.00
2005,05,23,07,42,159.20
2005,05,23,07,43,137.00
2005,05,23,07,44,126.10
2005,05,23,07,45,130.00
2005,05,23,07,46,143.40
2005,05,23,07,47,239.70
2005,05,23,07,48,318.70
2005,05,23,07,49,372.90
2005,05,23,07,50,391.50
2005,05,23,07,51,396.70
2005,05,23,07,52,393.40
2005,05,23,07,53,381.00
2005,05,23,07,54,378.40
2005,05,23,07,55,376.00
2005,05,23,07,56,383.40
2005,05,23,07,57,366.30
2005,05,23,07,58,181.80
2005,05,23,07,59,192.00
2005,05,23,08,00,192.00
2005,05,23,08,01,192.00
2005,05,23,08,02,240.30
2005,05,23,08,03,269.80
2005,05,23,08,04,446.00
2005,05,23,08,05,331.60
2005,05,23,08,06,173.30
2005,05,23,08,07,176.00
2005,05,23,08,08,240.10
2005,05,23,08,09,201.30
2005,05,23,08,10,257.00
2005,05,23,08,11,257.00
2005,05,23,08,12,349.10
2005,05,23,08,13,420.00
2005,05,23,08,14,233.50
2005,05,23,08,15,232.00
2005,05,23,08,16,304.00
2005,05,23,08,17,511.00
2005,05,23,08,18,526.10
2005,05,23,08,19,534.00
2005,05,23,08,20,534.00
2005,05,23,08,21,534.00
2005,05,23,08,22,428.10
2005,05,23,08,23,177.90
2005,05,23,08,24,158.80
2005,05,23,08,25,154.50
2005,05,23,08,26,176.30
2005,05,23,08,27,246.00
2005,05,23,08,28,246.00
2005,05,23,08,29,332.40
2005,05,23,08,30,411.00
2005,05,23,08,31,321.60
2005,05,23,08,32,258.30
2005,05,23,08,33,260.00
2005,05,23,08,34,260.00
2005,05,23,08,35,260.00
2005,05,23,08,36,433.90
2005,05,23,08,37,515.00
2005,05,23,08,38,515.00
2005,05,23,08,39,488.70
2005,05,23,08,40,394.00
2005,05,23,08,41,394.00
2005,05,23,08,42,530.30
2005,05,23,08,43,603.00
2005,05,23,08,44,603.00
2005,05,23,08,45,611.70
2005,05,23,08,46,641.00
2005,05,23,08,47,652.70
2005,05,23,08,48,629.80
2005,05,23,08,49,617.00
2005,05,23,08,50,617.00
2005,05,23,08,51,537.90
2005,05,23,08,52,325.00
2005,05,23,08,53,281.30
2005,05,23,08,54,250.70
2005,05,23,08,55,248.40
2005,05,23,08,56,253.00
2005,05,23,08,57,253.00
2005,05,23,08,58,253.00
2005,05,23,08,59,248.90
2005,05,23,09,00,252.70
2005,05,23,09,01,274.10
2005,05,23,09,02,353.20
2005,05,23,09,03,369.00
2005,05,23,09,04,385.10
2005,05,23,09,05,406.00
2005,05,23,09,06,406.00
2005,05,23,09,07,413.00
2005,05,23,09,08,566.00
2005,05,23,09,09,478.30
2005,05,23,09,10,278.00
2005,05,23,09,11,278.00
2005,05,23,09,12,434.80
2005,05,23,09,13,478.60
2005,05,23,09,14,282.00
2005,05,23,09,15,239.00
2005,05,23,09,16,239.00
2005,05,23,09,17,239.00
2005,05,23,09,18,239.00
2005,05,23,09,19,401.20
2005,05,23,09,20,446.00
2005,05,23,09,21,446.00
2005,05,23,09,22,345.60
2005,05,23,09,23,287.50
2005,05,23,09,24,288.00
2005,05,23,09,25,245.90
2005,05,23,09,26,265.30
2005,05,23,09,27,269.00
2005,05,23,09,28,273.90
2005,05,23,09,29,273.40
2005,05,23,09,30,265.20
2005,05,23,09,31,254.50
2005,05,23,09,32,287.40
2005,05,23,09,33,294.20
2005,05,23,09,34,287.40
2005,05,23,09,35,317.70
2005,05,23,09,36,330.00
2005,05,23,09,37,330.00
2005,05,23,09,38,330.00
2005,05,23,09,39,330.00
2005,05,23,09,40,330.00
2005,05,23,09,41,330.00
2005,05,23,09,42,330.00
2005,05,23,09,43,330.00
2005,05,23,09,44,415.80
2005,05,23,09,45,612.00
2005,05,23,09,46,612.00
2005,05,23,09,47,523.30
2005,05,23,09,48,560.10
2005,05,23,09,49,506.00
2005,05,23,09,50,506.00
2005,05,23,09,51,567.70
2005,05,23,09,52,635.00
2005,05,23,09,53,635.00
2005,05,23,09,54,629.30
2005,05,23,09,55,597.50
2005,05,23,09,56,448.00
2005,05,23,09,57,631.00
2005,05,23,09,58,777.50
2005,05,23,09,59,745.50
2005,05,23,10,00,711.40
2005,05,23,10,01,789.00
2005,05,23,10,02,789.00
2005,05,23,10,03,789.00
2005,05,23,10,04,789.00
2005,05,23,10,05,789.00
2005,05,23,10,06,757.90
2005,05,23,10,07,497.30
2005,05,23,10,08,552.00
2005,05,23,10,09,589.60
2005,05,23,10,10,621.00
2005,05,23,10,11,621.00
2005,05,23,10,12,629.60
2005,05,23,10,13,554.00
2005,05,23,10,14,654.20
2005,05,23,10,15,808.40
2005,05,23,10,16,803.40
2005,05,23,10,17,798.70
2005,05,23,10,18,794.40
2005,05,23,10,19,791.00
2005,05,23,10,20,791.90
2005,05,23,10,21,796.00
2005,05,23,10,22,806.10
2005,05,23,10,23,813.50
2005,05,23,10,24,811.70
2005,05,23,10,25,811.60
2005,05,23,10,26,813.40
2005,05,23,10,27,811.30
2005,05,23,10,28,812.00
2005,05,23,10,29,813.80
2005,05,23,10,30,815.00
2005,05,23,10,31,821.60
2005,05,23,10,32,822.00
2005,05,23,10,33,817.90
2005,05,23,10,34,812.90
2005,05,23,10,35,810.50
2005,05,23,10,36,817.90
2005,05,23,10,37,827.90
2005,05,23,10,38,856.30
2005,05,23,10,39,899.50
2005,05,23,10,40,914.00
2005,05,23,10,41,889.10
2005,05,23,10,42,617.10
2005,05,23,10,43,571.00
2005,05,23,10,44,571.00
2005,05,23,10,45,466.70
2005,05,23,10,46,407.00
2005,05,23,10,47,406.00
2005,05,23,10,48,406.00
2005,05,23,10,49,511.50
2005,05,23,10,50,635.70
2005,05,23,10,51,610.00
2005,05,23,10,52,610.00
2005,05,23,10,53,632.70
2005,05,23,10,54,589.60
2005,05,23,10,55,631.00
2005,05,23,10,56,631.00
2005,05,23,10,57,942.60
2005,05,23,10,58,1093.80
2005,05,23,10,59,1127.10
2005,05,23,11,00,1071.00
2005,05,23,11,01,1071.00
2005,05,23,11,02,1031.40
2005,05,23,11,03,1071.30
2005,05,23,11,04,1096.70
2005,05,23,11,05,1097.00
2005,05,23,11,06,1097.00
2005,05,23,11,07,1158.70
2005,05,23,11,08,1251.80
2005,05,23,11,09,1268.10
2005,05,23,11,10,1271.00
2005,05,23,11,11,1171.90
2005,05,23,11,12,726.00
2005,05,23,11,13,726.00
2005,05,23,11,14,614.60
2005,05,23,11,15,507.00
2005,05,23,11,16,501.00
2005,05,23,11,17,598.00
2005,05,23,11,18,663.00
2005,05,23,11,19,663.00
2005,05,23,11,20,571.00
2005,05,23,11,21,522.00
2005,05,23,11,22,536.30
2005,05,23,11,23,686.00
2005,05,23,11,24,620.70
2005,05,23,11,25,537.00
2005,05,23,11,26,544.20
2005,05,23,11,27,528.40
2005,05,23,11,28,545.40
2005,05,23,11,29,559.00
2005,05,23,11,30,532.00
2005,05,23,11,31,493.40
2005,05,23,11,32,516.40
2005,05,23,11,33,546.90
2005,05,23,11,34,552.00
2005,05,23,11,35,552.00
2005,05,23,11,36,552.00
2005,05,23,11,37,552.00
2005,05,23,11,38,538.90
2005,05,23,11,39,529.80
2005,05,23,11,40,541.50
2005,05,23,11,41,570.30
2005,05,23,11,42,587.00
2005,05,23,11,43,587.00
2005,05,23,11,44,587.00
2005,05,23,11,45,567.00
2005,05,23,11,46,537.60
2005,05,23,11,47,552.60
2005,05,23,11,48,606.70
2005,05,23,11,49,706.00
2005,05,23,11,50,709.50
2005,05,23,11,51,660.70
2005,05,23,11,52,633.90
2005,05,23,11,53,644.20
2005,05,23,11,54,672.50
2005,05,23,11,55,689.80
2005,05,23,11,56,707.00
2005,05,23,11,57,707.00
2005,05,23,11,58,663.70
2005,05,23,11,59,508.00
2005,05,23,12,00,497.00
2005,05,23,12,01,487.00
2005,05,23,12,02,479.60
2005,05,23,12,03,475.20
2005,05,23,12,06,476.80
2005,05,23,12,07,477.30
2005,05,23,12,08,480.00
2005,05,23,12,09,484.30
2005,05,23,12,10,504.30
2005,05,23,12,11,523.00
2005,05,23,12,12,515.00
2005,05,23,12,13,515.00
2005,05,23,12,14,513.30
2005,05,23,12,15,517.70
2005,05,23,12,16,529.50
2005,05,23,12,17,540.70
2005,05,23,12,18,559.40
2005,05,23,12,19,569.40
2005,05,23,12,20,568.30
2005,05,23,12,21,572.80
2005,05,23,12,22,593.30
2005,05,23,12,23,566.50
2005,05,23,12,24,553.70
2005,05,23,12,25,534.00
2005,05,23,12,26,522.60
2005,05,23,12,27,520.30
2005,05,23,12,28,523.50
2005,05,23,12,29,529.70
2005,05,23,12,30,537.30
2005,05,23,12,31,546.20
2005,05,23,12,32,563.70
2005,05,23,12,33,584.50
2005,05,23,12,34,559.80
2005,05,23,12,35,549.50
2005,05,23,12,36,548.80
2005,05,23,12,37,553.00
2005,05,23,12,38,563.50
2005,05,23,12,39,587.00
2005,05,23,12,40,625.10
2005,05,23,12,41,692.60
2005,05,23,12,42,719.00
2005,05,23,12,43,612.60
2005,05,23,12,44,585.20
2005,05,23,12,45,585.50
2005,05,23,12,46,587.90
2005,05,23,12,47,587.90
2005,05,23,12,48,599.30
2005,05,23,12,49,603.30
2005,05,23,12,50,579.50
2005,05,23,12,51,560.10
2005,05,23,12,52,552.80
2005,05,23,12,53,555.70
2005,05,23,12,54,557.00
2005,05,23,12,55,558.70
2005,05,23,12,56,563.20
2005,05,23,12,57,566.00
2005,05,23,12,58,587.00
2005,05,23,12,59,663.00
2005,05,23,13,00,747.30
2005,05,23,13,01,844.30
2005,05,23,13,02,875.00
2005,05,23,13,03,838.50
2005,05,23,13,04,905.50
2005,05,23,13,05,915.20
2005,05,23,13,06,900.00
2005,05,23,13,07,1008.70
2005,05,23,13,08,994.70
2005,05,23,13,09,830.60
2005,05,23,13,10,784.00
2005,05,23,13,11,784.00
2005,05,23,13,12,784.00
2005,05,23,13,13,815.50
2005,05,23,13,14,1472.70
2005,05,23,13,15,1445.40
2005,05,23,13,16,1424.00
2005,05,23,13,17,1441.80
2005,05,23,13,18,1459.00
2005,05,23,13,19,1457.80
2005,05,23,13,20,1422.50
2005,05,23,13,21,1416.70
2005,05,23,13,22,1463.00
2005,05,23,13,23,1176.00
2005,05,23,13,24,1042.00
2005,05,23,13,25,1033.10
2005,05,23,13,26,846.00
2005,05,23,13,27,863.00
2005,05,23,13,28,921.60
2005,05,23,13,29,894.00
2005,05,23,13,30,868.00
2005,05,23,13,31,857.80
2005,05,23,13,32,745.00
2005,05,23,13,33,734.70
2005,05,23,13,34,745.00
2005,05,23,13,35,745.00
2005,05,23,13,36,594.70
2005,05,23,13,37,562.20
2005,05,23,13,38,553.50
2005,05,23,13,39,554.00
2005,05,23,13,40,561.10
2005,05,23,13,41,572.00
2005,05,23,13,42,575.00
2005,05,23,13,43,602.30
2005,05,23,13,44,803.80
2005,05,23,13,45,861.70
2005,05,23,13,46,841.50
2005,05,23,13,47,817.00
2005,05,23,13,48,817.00
2005,05,23,13,49,558.70
2005,05,23,13,50,542.50
2005,05,23,13,51,528.20
2005,05,23,13,52,514.40
2005,05,23,13,53,510.00
2005,05,23,13,54,490.10
2005,05,23,13,55,484.70
2005,05,23,13,56,473.70
2005,05,23,13,57,470.00
2005,05,23,13,58,469.00
2005,05,23,13,59,469.00
2005,05,23,14,00,468.00
2005,05,23,14,01,468.20
2005,05,23,14,02,471.50
2005,05,23,14,03,484.00
2005,05,23,14,04,511.60
2005,05,23,14,05,542.10
2005,05,23,14,06,613.00
2005,05,23,14,07,651.80
2005,05,23,14,08,620.90
2005,05,23,14,09,565.70
2005,05,23,14,10,514.00
2005,05,23,14,11,496.60
2005,05,23,14,12,489.00
2005,05,23,14,13,487.80
2005,05,23,14,14,494.50
2005,05,23,14,15,521.90
2005,05,23,14,16,538.00
2005,05,23,14,17,538.00
2005,05,23,14,18,757.50
2005,05,23,14,19,762.80
2005,05,23,14,20,736.50
2005,05,23,14,21,708.00
2005,05,23,14,22,701.00
2005,05,23,14,23,701.00
2005,05,23,14,24,1399.00
2005,05,23,14,25,1399.00
2005,05,23,14,26,1399.00
2005,05,23,14,27,1399.00
2005,05,23,14,28,1399.00
2005,05,23,14,29,1233.80
2005,05,23,14,30,1209.00
2005,05,23,14,31,1209.00
2005,05,23,14,32,1019.00
2005,05,23,14,33,819.60
2005,05,23,14,34,838.00
2005,05,23,14,35,1035.30
2005,05,23,14,36,1055.00
2005,05,23,14,37,1022.70
2005,05,23,14,38,952.00
2005,05,23,14,39,965.70
2005,05,23,14,40,939.00
2005,05,23,14,41,870.00
2005,05,23,14,42,938.80
2005,05,23,14,43,1180.50
2005,05,23,14,44,1128.20
2005,05,23,14,45,1012.60
2005,05,23,14,46,983.00
2005,05,23,14,47,770.30
2005,05,23,14,48,715.30
2005,05,23,14,49,610.60
2005,05,23,14,50,650.00
2005,05,23,14,51,506.00
2005,05,23,14,52,434.00
2005,05,23,14,53,434.00
2005,05,23,14,54,482.30
2005,05,23,14,55,619.00
2005,05,23,14,56,619.00
2005,05,23,14,57,1051.00
2005,05,23,14,58,1132.00
2005,05,23,14,59,1114.00
2005,05,23,15,00,1114.00
2005,05,23,15,01,979.70
2005,05,23,15,02,805.00
2005,05,23,15,03,805.00
2005,05,23,15,04,805.00
2005,05,23,15,05,860.60
2005,05,23,15,06,1190.80
2005,05,23,15,07,1178.50
2005,05,23,15,08,1169.00
2005,05,23,15,09,1163.10
2005,05,23,15,10,1158.40
2005,05,23,15,11,1154.80
2005,05,23,15,12,1137.50
2005,05,23,15,13,1135.00
2005,05,23,15,14,1088.90
2005,05,23,15,15,1115.20
2005,05,23,15,16,1135.90
2005,05,23,15,17,1136.80
2005,05,23,15,18,1134.70
2005,05,23,15,19,1134.40
2005,05,23,15,20,1137.00
2005,05,23,15,21,1137.00
2005,05,23,15,22,1136.40
2005,05,23,15,23,1120.20
2005,05,23,15,24,1096.80
2005,05,23,15,25,1067.00
2005,05,23,15,26,1055.00
2005,05,23,15,27,911.00
2005,05,23,15,28,929.60
2005,05,23,15,29,932.00
2005,05,23,15,30,839.50
2005,05,23,15,31,666.00
2005,05,23,15,32,666.00
2005,05,23,15,33,573.70
2005,05,23,15,34,548.00
2005,05,23,15,35,548.00
2005,05,23,15,36,548.00
2005,05,23,15,37,548.00
2005,05,23,15,38,548.00
2005,05,23,15,39,457.20
2005,05,23,15,40,464.30
2005,05,23,15,41,638.40
2005,05,23,15,42,652.00
2005,05,23,15,43,520.90
2005,05,23,15,44,407.60
2005,05,23,15,45,390.50
2005,05,23,15,46,390.40
2005,05,23,15,47,414.80
2005,05,23,15,48,438.00
2005,05,23,15,49,438.00
2005,05,23,15,50,438.00
2005,05,23,15,51,438.00
2005,05,23,15,52,1044.80
2005,05,23,15,53,1030.70
2005,05,23,15,54,1014.00
2005,05,23,15,55,1014.00
2005,05,23,15,56,1014.00
2005,05,23,15,57,731.60
2005,05,23,15,58,668.00
2005,05,23,15,59,668.00
2005,05,23,16,00,828.00
2005,05,23,16,01,989.30
2005,05,23,16,02,990.00
2005,05,23,16,03,990.00
2005,05,23,16,04,990.00
2005,05,23,16,05,699.30
2005,05,23,16,06,221.70
2005,05,23,16,07,216.00
2005,05,23,16,08,216.00
2005,05,23,16,09,215.20
2005,05,23,16,10,204.60
2005,05,23,16,11,205.10
2005,05,23,16,12,213.00
2005,05,23,16,13,213.00
2005,05,23,16,14,247.70
2005,05,23,16,15,285.30
2005,05,23,16,16,233.90
2005,05,23,16,17,224.20
2005,05,23,16,18,224.00
2005,05,23,16,19,231.30
2005,05,23,16,20,251.30
2005,05,23,16,21,288.40
2005,05,23,16,22,375.40
2005,05,23,16,23,603.00
2005,05,23,16,24,603.00
2005,05,23,16,25,603.00
2005,05,23,16,26,903.90
2005,05,23,16,27,930.00
2005,05,23,16,28,905.20
2005,05,23,16,29,952.20
2005,05,23,16,30,956.00
2005,05,23,16,31,956.00
2005,05,23,16,32,956.00
2005,05,23,16,33,640.00
2005,05,23,16,34,640.00
2005,05,23,16,35,640.00
2005,05,23,16,36,640.00
2005,05,23,16,37,640.00
2005,05,23,16,38,640.00
2005,05,23,16,39,640.00
2005,05,23,16,40,640.00
2005,05,23,16,41,640.00
2005,05,23,16,42,626.30
2005,05,23,16,43,651.70
2005,05,23,16,44,608.30
2005,05,23,16,45,552.00
2005,05,23,16,46,552.00
2005,05,23,16,47,651.00
2005,05,23,16,48,746.00
2005,05,23,16,49,754.10
2005,05,23,16,50,743.10
2005,05,23,16,51,745.90
2005,05,23,16,52,737.90
2005,05,23,16,53,726.50
2005,05,23,16,54,717.10
2005,05,23,16,55,710.70
2005,05,23,16,56,696.30
2005,05,23,16,57,692.00
2005,05,23,16,58,688.20
2005,05,23,16,59,687.00
2005,05,23,17,00,680.00
2005,05,23,17,01,677.00
2005,05,23,17,02,666.50
2005,05,23,17,03,666.00
2005,05,23,17,04,666.00
2005,05,23,17,05,331.50
2005,05,23,17,06,101.50
2005,05,23,17,07,104.50
2005,05,23,17,08,105.00
2005,05,23,17,09,102.00
2005,05,23,17,10,93.30
2005,05,23,17,11,90.40
2005,05,23,17,12,90.80
2005,05,23,17,13,92.70
2005,05,23,17,14,94.70
2005,05,23,17,15,92.00
2005,05,23,17,16,89.10
2005,05,23,17,17,85.50